Weather History for Coeur d'Alene, ID

Change the Weather History Date:

Sunday, November 13, 2011

  Actual Average Record
Temperature  
Mean Temperature 40 °F -  
Max Temperature 46 °F 42 °F 60 °F (1999)
Min Temperature 33 °F 29 °F 10 °F (2000)
Degree Days  
Heating Degree Days 26    
Moisture  
Dew Point 27 °F    
Average Humidity 64    
Maximum Humidity 81    
Minimum Humidity 29    
Precipitation  
Precipitation 0.10 in - - ()
Sea Level Pressure  
Sea Level Pressure 29.58 in    
Wind  
Wind Speed 11 mph (West)    
Max Wind Speed 23 mph    
Max Gust Speed 33 mph    
Visibility 10 miles    
Events      
Averages and records for this station are not official NWS values.
T = Trace of Precipitation, MM = Missing Value Source: NWS Daily Summary

Daily Weather History Graph

Daily Weather History Graph

Search for Another Location

Airport:

Trip Planner

Search our weather history database for the weather conditions in past years. The results will help you decide how hot, cold, wet, or windy it might be!

Date:

Astronomy

Nov. 13, 2011 Rise Set
Actual Time 6:49 AM PST 4:12 PM PST
Civil Twilight 6:16 AM PST 4:46 PM PST
Nautical Twilight 5:38 AM PST 5:23 PM PST
Astronomical Twilight 5:02 AM PST 5:59 PM PST
Moon 6:18 PM PST (11/13) 9:34 AM PST (11/13)
Length of Visible Light 10h 30m
Length of Day
9h 23m
Waning Gibbous, 92% of the Moon is Illuminated
Nov 13
Waning Gibbous
Nov 18
Last Quarter
Nov 24
New
Dec 2
First Quarter
Dec 10
Full

Hourly Weather History & Observations

Time (PST) Temp. Windchill Dew Point Humidity Pressure Visibility Wind Dir Wind Speed Gust Speed Precip Events Conditions
12:15 AM 35.6 °F 31.7 °F 28.4 °F 75% 29.51 in 10.0 mi West 4.6 mph - N/A   Overcast
12:35 AM 33.8 °F 29.6 °F 28.4 °F 81% 29.51 in 7.0 mi North 4.6 mph - 0.01 in   Overcast
12:55 AM 33.8 °F - 28.4 °F 81% 29.50 in 7.0 mi Calm Calm - 0.01 in   Overcast
1:15 AM 33.8 °F 28.6 °F 28.4 °F 81% 29.49 in 10.0 mi North 5.8 mph - N/A   Overcast
1:35 AM 33.8 °F 25.8 °F 28.4 °F 81% 29.49 in 10.0 mi NNW 10.4 mph - 0.01 in   Overcast
1:55 AM 35.6 °F 27.1 °F 28.4 °F 75% 29.49 in 10.0 mi WNW 12.7 mph - 0.01 in   Overcast
2:15 AM 35.6 °F 25.2 °F 28.4 °F 75% 29.48 in 10.0 mi WNW 18.4 mph 21.9 mph N/A   Overcast
2:35 AM 35.6 °F 24.8 °F 30.2 °F 81% 29.48 in 6.0 mi West 19.6 mph - 0.02 in   Overcast
2:55 AM 35.6 °F 25.5 °F 30.2 °F 81% 29.48 in 5.0 mi West 17.3 mph 24.2 mph 0.05 in   Overcast
3:35 AM 35.6 °F 25.5 °F 30.2 °F 81% 29.47 in 10.0 mi WSW 17.3 mph - 0.03 in   Overcast
4:15 AM 35.6 °F 26.2 °F 30.2 °F 81% 29.48 in 10.0 mi West 15.0 mph 21.9 mph N/A   Overcast
4:55 AM 35.6 °F 25.9 °F 30.2 °F 81% 29.48 in 10.0 mi WSW 16.1 mph 20.7 mph N/A   Overcast
5:15 AM 35.6 °F 25.9 °F 30.2 °F 81% 29.49 in 10.0 mi WSW 16.1 mph - N/A   Overcast
5:35 AM 35.6 °F 28.6 °F 30.2 °F 81% 29.51 in 10.0 mi West 9.2 mph - N/A   Mostly Cloudy
5:55 AM 35.6 °F 28.0 °F 28.4 °F 75% 29.52 in 10.0 mi WSW 10.4 mph - N/A   Mostly Cloudy
6:35 AM 35.6 °F 26.6 °F 28.4 °F 75% 29.53 in 10.0 mi WSW 13.8 mph - N/A   Overcast
6:55 AM 35.6 °F 26.2 °F 26.6 °F 70% 29.54 in 10.0 mi WSW 15.0 mph - N/A   Overcast
7:15 AM 35.6 °F 28.0 °F 26.6 °F 70% 29.55 in 10.0 mi WSW 10.4 mph - N/A   Overcast
7:35 AM 35.6 °F 29.9 °F 26.6 °F 70% 29.56 in 10.0 mi West 6.9 mph - N/A   Overcast
7:55 AM 33.8 °F 26.4 °F 28.4 °F 81% 29.57 in 10.0 mi West 9.2 mph - N/A   Overcast
8:15 AM 35.6 °F 28.6 °F 26.6 °F 70% 29.57 in 10.0 mi West 9.2 mph - N/A   Overcast
8:35 AM 35.6 °F 28.6 °F 28.4 °F 75% 29.59 in 10.0 mi West 9.2 mph - N/A   Overcast
8:55 AM 35.6 °F 28.6 °F 26.6 °F 70% 29.60 in 10.0 mi West 9.2 mph - N/A   Overcast
9:15 AM 35.6 °F 28.0 °F 26.6 °F 70% 29.61 in 10.0 mi WSW 10.4 mph - N/A   Scattered Clouds
9:35 AM 35.6 °F 27.5 °F 26.6 °F 70% 29.61 in 10.0 mi SW 11.5 mph - N/A   Clear
9:55 AM 35.6 °F 26.2 °F 26.6 °F 70% 29.62 in 10.0 mi SW 15.0 mph - N/A   Clear
10:15 AM 37.4 °F 29.8 °F 28.4 °F 70% 29.62 in 10.0 mi WSW 11.5 mph - N/A   Clear
10:35 AM 37.4 °F 32.1 °F 28.4 °F 70% 29.62 in 10.0 mi SSW 6.9 mph - N/A   Scattered Clouds
10:55 AM 39.2 °F 31.6 °F 28.4 °F 65% 29.62 in 10.0 mi SW 12.7 mph - N/A   Mostly Cloudy
11:15 AM 39.2 °F 29.6 °F 28.4 °F 65% 29.62 in 10.0 mi WSW 19.6 mph 25.3 mph N/A   Overcast
11:35 AM 39.2 °F 30.2 °F 28.4 °F 65% 29.63 in 10.0 mi WSW 17.3 mph 21.9 mph N/A   Overcast
11:55 AM 42.8 °F 35.4 °F 28.4 °F 57% 29.62 in 10.0 mi West 15.0 mph 24.2 mph N/A   Overcast
12:15 PM 44.6 °F 36.6 °F 28.4 °F 53% 29.62 in 10.0 mi West 19.6 mph 28.8 mph N/A   Mostly Cloudy
12:35 PM 44.6 °F 37.2 °F 28.4 °F 53% 29.62 in 10.0 mi West 17.3 mph 26.5 mph N/A   Scattered Clouds
12:55 PM 44.6 °F 36.6 °F 23.0 °F 43% 29.61 in 10.0 mi WSW 19.6 mph 26.5 mph N/A   Scattered Clouds
1:15 PM 44.6 °F 37.4 °F 24.8 °F 46% 29.61 in 10.0 mi West 16.1 mph 25.3 mph N/A   Mostly Cloudy
1:35 PM 46.4 °F 39.0 °F 28.4 °F 50% 29.60 in 10.0 mi WSW 19.6 mph 29.9 mph N/A   Overcast
1:55 PM 46.4 °F 38.7 °F 15.8 °F 29% 29.60 in 10.0 mi West 20.7 mph 27.6 mph N/A   Mostly Cloudy
2:15 PM 46.4 °F 39.2 °F 24.8 °F 43% 29.60 in 10.0 mi West 18.4 mph 33.4 mph N/A   Mostly Cloudy
2:35 PM 46.4 °F 39.5 °F 26.6 °F 46% 29.60 in 10.0 mi West 17.3 mph 27.6 mph N/A   Scattered Clouds
2:55 PM 44.6 °F 36.6 °F 26.6 °F 49% 29.60 in 10.0 mi West 19.6 mph 33.4 mph N/A   Scattered Clouds
3:15 PM 44.6 °F 36.1 °F 26.6 °F 49% 29.60 in 10.0 mi West 21.9 mph 28.8 mph N/A   Partly Cloudy
3:35 PM 44.6 °F 35.9 °F 24.8 °F 46% 29.60 in 10.0 mi WSW 23.0 mph 31.1 mph N/A   Clear
3:55 PM 42.8 °F 35.1 °F 24.8 °F 49% 29.61 in 10.0 mi WSW 16.1 mph 27.6 mph N/A   Clear
4:15 PM 42.8 °F 36.6 °F 24.8 °F 49% 29.62 in 10.0 mi WSW 11.5 mph - N/A   Partly Cloudy
4:35 PM 41.0 °F 32.8 °F 23.0 °F 49% 29.62 in 10.0 mi West 16.1 mph 20.7 mph N/A   Partly Cloudy
4:55 PM 41.0 °F 35.8 °F 24.8 °F 53% 29.62 in 10.0 mi West 8.1 mph - N/A   Partly Cloudy
5:15 PM 39.2 °F 35.0 °F 23.0 °F 52% 29.62 in 10.0 mi SSW 5.8 mph - N/A   Clear
5:35 PM 39.2 °F 34.2 °F 24.8 °F 56% 29.62 in 10.0 mi WSW 6.9 mph - N/A   Clear
5:55 PM 39.2 °F 32.0 °F 24.8 °F 56% 29.63 in 10.0 mi WSW 11.5 mph - N/A   Clear
6:15 PM 39.2 °F 31.2 °F 24.8 °F 56% 29.62 in 10.0 mi WSW 13.8 mph - N/A   Clear
6:35 PM 39.2 °F 31.2 °F 24.8 °F 56% 29.63 in 10.0 mi WSW 13.8 mph - N/A   Clear
6:55 PM 39.2 °F 31.6 °F 24.8 °F 56% 29.63 in 10.0 mi WSW 12.7 mph - N/A   Clear
7:15 PM 37.4 °F 30.3 °F 24.8 °F 60% 29.63 in 10.0 mi WSW 10.4 mph - N/A   Clear
7:35 PM 37.4 °F 32.1 °F 24.8 °F 60% 29.64 in 10.0 mi WNW 6.9 mph - N/A   Clear
7:55 PM 35.6 °F 30.7 °F 24.8 °F 65% 29.64 in 10.0 mi West 5.8 mph - N/A   Clear
8:15 PM 37.4 °F 30.8 °F 26.6 °F 65% 29.64 in 10.0 mi West 9.2 mph - N/A   Clear
8:35 PM 35.6 °F 30.7 °F 24.8 °F 65% 29.64 in 10.0 mi WNW 5.8 mph - N/A   Clear
8:55 PM 35.6 °F - 24.8 °F 65% 29.64 in 10.0 mi Calm Calm - N/A   Clear
9:15 PM 35.6 °F 28.0 °F 26.6 °F 70% 29.64 in 10.0 mi West 10.4 mph - N/A   Clear
9:35 PM 37.4 °F 29.3 °F 26.6 °F 65% 29.64 in 10.0 mi West 12.7 mph - N/A   Clear
9:55 PM 37.4 °F 29.3 °F 26.6 °F 65% 29.64 in 10.0 mi West 12.7 mph - N/A   Clear
10:15 PM 37.4 °F 28.5 °F 28.4 °F 70% 29.64 in 10.0 mi West 15.0 mph - N/A   Clear
10:35 PM 35.6 °F 26.6 °F 28.4 °F 75% 29.64 in 10.0 mi West 13.8 mph - N/A   Clear
10:55 PM 37.4 °F 28.5 °F 28.4 °F 70% 29.64 in 10.0 mi West 15.0 mph - N/A   Clear
11:15 PM 37.4 °F 29.3 °F 28.4 °F 70% 29.64 in 10.0 mi West 12.7 mph - N/A   Clear
11:35 PM 37.4 °F 28.2 °F 28.4 °F 70% 29.64 in 10.0 mi West 16.1 mph 23.0 mph N/A   Clear
11:55 PM 37.4 °F 28.9 °F 28.4 °F 70% 29.63 in 10.0 mi West 13.8 mph - N/A   Clear